Tracking 31027 objects as of 19-Jul-2025
HD Live streaming from Space Station
objects crossing your sky now

ATLAS 75E DEB

Track ATLAS 75E DEB now!
10-day predictions


NORAD ID: 25842
Int'l Code: 1983-072C
Perigee: 1,780.2 km
Apogee: 19,464.2 km
Inclination: 65.3 °
Period: 367.4 minutes
Semi major axis: 16993 km
RCS: 0.0797 m2 (small)
Launch date: July 14, 1983
Source: United States (US)
Launch site: AIR FORCE WESTERN TEST RANGE (AFWTR)

Note: This is SATELLITE DEBRIS
Your satellite tracking list
STARLINK-31611
Track 1 satellite(s)




NASA's NSSDC Master Catalog

Two Line Element Set (TLE):
1 25842U 83072C   25195.22450068  .00000032  00000-0  00000+0 0  9994
2 25842  65.3321 254.3837 5203282 109.6967   0.4075  3.91913568416771
Source of the keplerian elements: AFSPC